{"data":{"norad_id":60919,"epoch":"2026-05-25T03:13:29.678592Z","epoch_age_seconds":73723,"freshness":"FRESH","line1":"1 60919U 24154S   26145.13437128  .00000024  00000+0  12953-4 0  9997","line2":"2 60919  53.1597 288.4350 0001187  99.4551 260.6584 15.30186930 98045","mean_motion":15.3018693,"eccentricity":0.0001187,"inclination_deg":53.1597,"raan_deg":288.435,"arg_perigee_deg":99.4551,"mean_anomaly_deg":260.6584,"bstar":1.2953e-5,"rev_number":9804,"period_min":94.106149501617,"perigee_km":474.44059683831,"apogee_km":476.06759188411,"semimajor_km":6853.3910943612,"source":"CELESTRAK","updated_at":"2026-05-25T13:38:19.315464Z"}}